Regional Weather Roundup
Issued by NWS Jackson, KY

Home | Current Version | Previous Version | Graphics & Text | Print | Product List | Glossary On
Versions: 1 2 3 4 5 6 7 8 9 10 11 12 13 14 15 16 17 18 19 20 21 22 23 24 25 26 27 28 29 30 31 32 33 34 35 36 37 38 39 40 41 42 43 44 45 46 47 48 49 50
370
ASUS43 KJKL 082210
RWRJKL

EAST KENTUCKY HOURLY WEATHER ROUNDUP
NATIONAL WEATHER SERVICE JACKSON KY
500 PM EST MON FEB 08 2016

NOTE: "FAIR" INDICATES FEW OR NO CLOUDS BELOW 12,000 FEET WITH
NO SIGNIFICANT WEATHER AND/OR OBSTRUCTIONS TO VISIBILITY.

* THESE REPORTS ARE NOT UNDER NWS QUALITY CONTROL AND MAY NOT
  REPORT WEATHER SUCH AS PRECIPITATION AND FOG.

KYZ079-080-083-085-087-088-110-112-115-119-120-082300
...EASTERN KENTUCKY...

CITY           SKY/WX    TMP DP  RH WIND       PRES   REMARKS
JACKSON        CLOUDY    36  30  79 VRB5      29.67R WCI  32
LONDON         LGT SNOW  33  29  85 W14G25    29.72R VSB 1   WCI  23
SOMERSET*      CLOUDY    32  28  86 W8        29.76R WCI  25
MONTICELLO*    FLURRIES  35  28  75 W8G18     29.77R WCI  29
WILLIAMSBURG*  CLOUDY    37  30  75 W13G22    29.73R WCI  29
MIDDLESBORO*   CLOUDY    38  29  71 NW6       29.71S WCI  33
HARLAN APT*    CLOUDY    34  32  93 W3        29.69S
BIG SANDY*     CLOUDY    36  34  91 W3        29.68R
MOREHEAD APT*  CLOUDY    36  30  80 W6        29.68S WCI  31
$$

KYZ035-036-041-042-044-050-067-078-099-082300
...CENTRAL KENTUCKY...

CITY           SKY/WX    TMP DP  RH WIND       PRES   REMARKS
MT STERLING*   CLOUDY    36  32  87 NW12G20   29.69R WCI  27
DANVILLE*      LGT SNOW  32  32 100 W10       29.72R WCI  24
RICHMOND*      CLOUDY    32  32 100 SW14      29.71R WCI  22
LEXINGTON      LGT SNOW  33  31  92 W9        29.70R FOG     WCI  25
FRANKFORT      HVY SNOW  33  30  88 W13G23    29.70R VSB 1/4 WCI  24
$$

KYZ091>093-OHZ055-061-077-WVZ005-015-034-035-042-082300
...SOUTHERN OHIO/WEST VIRGINIA...

CITY           SKY/WX    TMP DP  RH WIND       PRES   REMARKS
COVINGTON      LGT SNOW  34  30  86 W14G26    29.65R VSB 3/4 WCI  24
COLUMBUS       MOCLDY    34  34 100 CALM      29.61R FOG
DAYTON         CLOUDY    38  29  70 W13       29.62R WCI  30
WILMINGTON     LGT SNOW  33  32  96 W5        29.62R FOG     WCI  29
HUNTINGTON     CLOUDY    37  32  82 SW8       29.66R WCI  31
CHARLESTON     SNOW      34  30  85 W23G40    29.65R VSB 1/4 WCI  22
PINEVILLE*     MIX PCPN  35  31  85 MISG      29.69R
BECKLEY        HVY SNOW  33  29  85 W24G40    29.59R VSB 1/4 WCI  20
$$

VAZ002-007-008-TNZ017-027-036-066-071-082300
...SOUTHWEST VIRGINIA/EAST TENNESSEE...

CITY           SKY/WX    TMP DP  RH WIND       PRES   REMARKS
BRISTOL        LGT SNOW  35  33  92 SW5       29.68R FOG     WCI  31
KNOXVILLE      CLOUDY    42  21  43 W17G24    29.73R
OAK RIDGE      CLOUDY    40  28  62 W8        29.75R WCI  34
CROSSVILLE     CLOUDY    37  21  52 W13       29.73R WCI  29
NASHVILLE      LGT SNOW  36  27  69 W15G23    29.84R WCI  27
$$

...KEY TO REMARKS...
VSB - VISIBILITY IN MILES
WCI - WIND CHILL INDEX
HX  - HEAT INDEX

$$




USA.gov is the U.S. government's official web portal to all federal, state and local government web resources and services.